Weather in Diano Marina

Italy     43°54′30″N   8°04′55″E
temp.,
°C
wind,
m/s
gust,
m/s
humid.,
%
clouds,
%
prec.,
mm/h
press.,
hPa
HPBL,
m
8 march, mon
mon801:00+5nnw227482 0.0 101831
04:00+5nnw227389 0.0 101633
07:00+5nnw237190 0.0 101634
10:00+11ene125133 0.0 1015754
13:00+13e334831 0.0 10141332
16:00+12ese235261 0.1 1013997
19:00+8nw127077 0.1 101432
22:00+6nnw336883 0.0 101570
9 march, tue
tue901:00+6nnw336990 0.0 101588
04:00+5nnw33729 0.0 101481
07:00+4nnw33704 0.0 101578
10:00+11ne12480 0.0 1015712
13:00+13ese22430 0.0 10151483
16:00+11sw125174 0.0 10131292
19:00+7nw017362 0.1 101434
22:00+6nw23660 0.0 101648
10 march, wed
wed1001:00+5nw33620 0.0 101737
04:00+5nw33580 0.0 101736
07:00+5nw33600 0.0 101932
10:00+11sse11460 0.0 1020656
13:00+12sse32480 0.0 1021879
16:00+11s22610 0.0 1019787
19:00+7wsw11885 0.0 102036
22:00+6wnw12874 0.0 102231
11 march, thu
thu1101:00+5nw118830 0.0 102222
04:00+6n2288100 0.0 102129
07:00+5nnw2288100 0.0 102133
10:00+11se116299 0.0 1022780
13:00+12sse326396 0.0 1021816
16:00+11sse2266100 0.0 1020669
19:00+8nne1182100 0.0 101929
22:00+7wnw1184100 0.0 101922
12 march, fri
fri1201:00+7wnw1185100 0.0 101722
04:00+6n128499 0.0 101526
07:00+6nnw2279100 0.0 101526
10:00+13sse116186 0.0 1015363
13:00+14sse326046 0.0 1014687
16:00+14se225917 0.1 1012602
19:00+8nne118817 0.1 101236
22:00+8nw127558 0.0 101332